Powrót do katalogu

STARLINK-5296

AktywnyŁącznośćVLEO
NORAD 55312·PAYLOAD·🇺🇸 United States

Wystrzelony Jan 19, 2023 z Vandenberg Space Force Base

Loading…

Następne Przeloty (najbliższe 24 godziny)

TLE

ŚwieżeSource: CelesTrak SupGP

Epoka: Sep 15, 2026, 01:36 UTC

1 55312C 23010AV  26258.06715278 -.00036933  00000+0 -30947-2 0  2589
2 55312  70.0007 246.7841 0003570 265.0669 355.1399 14.98353430    19

Śledź STARLINK-5296 w czasie rzeczywistym z AllMySat

Download on the App Store